Data supplied by UK-AIR on 24/3/2020
All Data GMT hour ending 
Status: R =Ratified P=Provisional,P*=As supplied
,,Dumfries,,,,,,,,,,,,,,,,,,,,,,,
Date,time,"Nitric oxide",status,unit,"Nitrogen dioxide",status,unit,"Nitrogen oxides as nitrogen dioxide",status,unit
 
01-01-2019,01:00,2.40455,R,ugm-3,6.97954,R,ugm-3,10.66646,R,ugm-3
01-01-2019,02:00,4.04168,R,ugm-3,10.57546,R,ugm-3,16.77262,R,ugm-3
01-01-2019,03:00,3.56845,R,ugm-3,8.55717,R,ugm-3,14.02871,R,ugm-3
01-01-2019,04:00,6.90667,R,ugm-3,10.45298,R,ugm-3,21.04306,R,ugm-3
01-01-2019,05:00,8.90193,R,ugm-3,12.95873,R,ugm-3,26.60817,R,ugm-3
01-01-2019,06:00,2.03363,R,ugm-3,3.54834,R,ugm-3,6.66654,R,ugm-3
01-01-2019,07:00,2.26385,R,ugm-3,6.44165,R,ugm-3,9.91285,R,ugm-3
01-01-2019,08:00,2.64756,R,ugm-3,10.20106,R,ugm-3,14.26059,R,ugm-3
01-01-2019,09:00,1.41970,R,ugm-3,11.27216,R,ugm-3,13.44901,R,ugm-3
01-01-2019,10:00,3.45334,R,ugm-3,11.97998,R,ugm-3,17.27502,R,ugm-3
01-01-2019,11:00,3.22311,R,ugm-3,8.68088,R,ugm-3,13.62292,R,ugm-3
01-01-2019,12:00,7.55897,R,ugm-3,14.78603,R,ugm-3,26.37629,R,ugm-3
01-01-2019,13:00,10.01467,R,ugm-3,17.80315,R,ugm-3,33.15877,R,ugm-3
01-01-2019,14:00,8.82519,R,ugm-3,17.54008,R,ugm-3,31.07185,R,ugm-3
01-01-2019,15:00,13.92845,R,ugm-3,26.29457,R,ugm-3,47.65123,R,ugm-3
01-01-2019,16:00,20.98861,R,ugm-3,34.65718,R,ugm-3,66.83926,R,ugm-3
01-01-2019,17:00,25.82328,R,ugm-3,33.56283,R,ugm-3,73.15798,R,ugm-3
01-01-2019,18:00,24.59543,R,ugm-3,34.34409,R,ugm-3,72.05655,R,ugm-3
01-01-2019,19:00,27.85691,R,ugm-3,39.89373,R,ugm-3,82.60706,R,ugm-3
01-01-2019,20:00,24.05824,R,ugm-3,33.02288,R,ugm-3,69.91166,R,ugm-3
01-01-2019,21:00,28.62432,R,ugm-3,37.73157,R,ugm-3,81.62158,R,ugm-3
01-01-2019,22:00,24.25009,R,ugm-3,33.54029,R,ugm-3,70.72324,R,ugm-3
01-01-2019,23:00,19.45379,R,ugm-3,30.74978,R,ugm-3,60.57851,R,ugm-3
01-01-2019,24:00,19.22357,R,ugm-3,27.27677,R,ugm-3,56.75250,R,ugm-3
02-01-2019,01:00,21.11728,R,ugm-3,29.69917,R,ugm-3,62.07855,R,ugm-3
02-01-2019,02:00,14.14653,R,ugm-3,16.46946,R,ugm-3,38.16050,R,ugm-3
02-01-2019,03:00,7.53456,R,ugm-3,11.14608,R,ugm-3,22.69892,R,ugm-3
02-01-2019,04:00,6.80417,R,ugm-3,9.71165,R,ugm-3,20.14457,R,ugm-3
02-01-2019,05:00,9.34132,R,ugm-3,15.05191,R,ugm-3,29.37507,R,ugm-3
02-01-2019,06:00,2.84468,R,ugm-3,8.11972,R,ugm-3,12.48150,R,ugm-3
02-01-2019,07:00,3.42131,R,ugm-3,9.55771,R,ugm-3,14.80364,R,ugm-3
02-01-2019,08:00,10.91743,R,ugm-3,19.31140,R,ugm-3,36.05122,R,ugm-3
02-01-2019,09:00,16.79900,R,ugm-3,28.11554,R,ugm-3,53.87365,R,ugm-3
02-01-2019,10:00,36.71177,R,ugm-3,29.45442,R,ugm-3,85.74502,R,ugm-3
02-01-2019,11:00,44.97673,R,ugm-3,38.08730,R,ugm-3,107.05066,R,ugm-3
02-01-2019,12:00,54.12584,R,ugm-3,38.80445,R,ugm-3,121.79625,R,ugm-3
02-01-2019,13:00,52.39597,R,ugm-3,41.57299,R,ugm-3,121.91235,R,ugm-3
02-01-2019,14:00,55.12532,R,ugm-3,52.01752,R,ugm-3,136.54184,R,ugm-3
02-01-2019,15:00,48.82089,R,ugm-3,50.07348,R,ugm-3,124.93113,R,ugm-3
02-01-2019,16:00,72.34718,R,ugm-3,67.00319,R,ugm-3,177.93398,R,ugm-3
02-01-2019,17:00,56.35546,R,ugm-3,61.80010,R,ugm-3,148.21059,R,ugm-3
02-01-2019,18:00,74.73056,R,ugm-3,63.81314,R,ugm-3,178.39841,R,ugm-3
02-01-2019,19:00,49.78193,R,ugm-3,37.74390,R,ugm-3,114.07513,R,ugm-3
02-01-2019,20:00,41.01724,R,ugm-3,34.17323,R,ugm-3,97.06546,R,ugm-3
02-01-2019,21:00,23.64161,R,ugm-3,31.15015,R,ugm-3,67.40012,R,ugm-3
02-01-2019,22:00,14.72315,R,ugm-3,30.36961,R,ugm-3,52.94479,R,ugm-3
02-01-2019,23:00,10.95587,R,ugm-3,27.14774,R,ugm-3,43.94650,R,ugm-3
02-01-2019,24:00,11.72470,R,ugm-3,24.11116,R,ugm-3,42.08879,R,ugm-3
03-01-2019,01:00,3.54319,R,ugm-3,20.92269,R,ugm-3,26.35550,R,ugm-3
03-01-2019,02:00,5.90531,R,ugm-3,18.23101,R,ugm-3,27.28570,R,ugm-3
03-01-2019,03:00,1.81011,R,ugm-3,16.46793,R,ugm-3,19.24339,R,ugm-3
03-01-2019,04:00,2.81144,R,ugm-3,14.06052,R,ugm-3,18.37133,R,ugm-3
03-01-2019,05:00,1.96416,R,ugm-3,13.26673,R,ugm-3,16.27840,R,ugm-3
03-01-2019,06:00,7.97217,R,ugm-3,17.89121,R,ugm-3,30.11504,R,ugm-3
03-01-2019,07:00,46.36953,R,ugm-3,29.88525,R,ugm-3,100.98420,R,ugm-3
03-01-2019,08:00,69.90091,R,ugm-3,47.98812,R,ugm-3,155.16801,R,ugm-3
03-01-2019,09:00,217.94448,R,ugm-3,62.14397,R,ugm-3,396.32084,R,ugm-3
03-01-2019,10:00,169.41823,R,ugm-3,59.86697,R,ugm-3,319.63796,R,ugm-3
03-01-2019,11:00,150.00773,R,ugm-3,67.53721,R,ugm-3,297.54585,R,ugm-3
03-01-2019,12:00,320.77391,R,ugm-3,94.98976,R,ugm-3,586.83622,R,ugm-3
03-01-2019,13:00,,,,,,,,,
03-01-2019,14:00,228.35580,R,ugm-3,144.17999,R,ugm-3,494.32067,R,ugm-3
03-01-2019,15:00,180.70251,R,ugm-3,74.77262,R,ugm-3,351.84593,R,ugm-3
03-01-2019,16:00,211.74390,R,ugm-3,99.32466,R,ugm-3,423.99411,R,ugm-3
03-01-2019,17:00,205.77440,R,ugm-3,88.88555,R,ugm-3,404.40190,R,ugm-3
03-01-2019,18:00,164.10345,R,ugm-3,79.52733,R,ugm-3,331.14911,R,ugm-3
03-01-2019,19:00,151.85635,R,ugm-3,88.24824,R,ugm-3,321.09139,R,ugm-3
03-01-2019,20:00,130.05805,R,ugm-3,62.48823,R,ugm-3,261.90779,R,ugm-3
03-01-2019,21:00,43.40403,R,ugm-3,40.36226,R,ugm-3,106.91419,R,ugm-3
03-01-2019,22:00,38.35884,R,ugm-3,38.97058,R,ugm-3,97.78666,R,ugm-3
03-01-2019,23:00,31.96570,R,ugm-3,36.21564,R,ugm-3,85.22904,R,ugm-3
03-01-2019,24:00,17.63891,R,ugm-3,34.52128,R,ugm-3,61.56723,R,ugm-3
04-01-2019,01:00,18.16212,R,ugm-3,32.85575,R,ugm-3,60.70394,R,ugm-3
04-01-2019,02:00,4.20704,R,ugm-3,17.84639,R,ugm-3,24.29710,R,ugm-3
04-01-2019,03:00,2.77049,R,ugm-3,16.65291,R,ugm-3,20.90094,R,ugm-3
04-01-2019,04:00,2.84745,R,ugm-3,13.50748,R,ugm-3,17.87351,R,ugm-3
04-01-2019,05:00,3.61703,R,ugm-3,13.66653,R,ugm-3,19.21257,R,ugm-3
04-01-2019,06:00,18.31604,R,ugm-3,19.48146,R,ugm-3,47.56565,R,ugm-3
04-01-2019,07:00,45.98249,R,ugm-3,29.34162,R,ugm-3,99.84712,R,ugm-3
04-01-2019,08:00,106.70246,R,ugm-3,41.15122,R,ugm-3,204.75937,R,ugm-3
04-01-2019,09:00,216.86803,R,ugm-3,56.49899,R,ugm-3,389.02534,R,ugm-3
04-01-2019,10:00,215.32887,R,ugm-3,61.71178,R,ugm-3,391.87811,R,ugm-3
04-01-2019,11:00,236.14605,R,ugm-3,75.08763,R,ugm-3,437.17319,R,ugm-3
04-01-2019,12:00,230.25875,R,ugm-3,100.82381,R,ugm-3,453.88230,R,ugm-3
04-01-2019,13:00,258.57934,R,ugm-3,71.02296,R,ugm-3,467.50575,R,ugm-3
04-01-2019,14:00,179.54334,R,ugm-3,93.23599,R,ugm-3,368.53193,R,ugm-3
04-01-2019,15:00,215.59822,R,ugm-3,119.57689,R,ugm-3,450.15623,R,ugm-3
04-01-2019,16:00,143.14214,R,ugm-3,76.91593,R,ugm-3,296.39748,R,ugm-3
04-01-2019,17:00,104.50915,R,ugm-3,70.42209,R,ugm-3,230.66722,R,ugm-3
04-01-2019,18:00,73.72590,R,ugm-3,87.98850,R,ugm-3,201.03330,R,ugm-3
04-01-2019,19:00,40.13367,R,ugm-3,48.90571,R,ugm-3,110.44314,R,ugm-3
04-01-2019,20:00,61.79739,R,ugm-3,63.25412,R,ugm-3,158.00879,R,ugm-3
04-01-2019,21:00,14.62205,R,ugm-3,30.44351,R,ugm-3,52.86367,R,ugm-3
04-01-2019,22:00,27.32014,R,ugm-3,30.12771,R,ugm-3,72.01801,R,ugm-3
04-01-2019,23:00,16.58448,R,ugm-3,27.20161,R,ugm-3,52.63079,R,ugm-3
04-01-2019,24:00,17.54646,R,ugm-3,12.80178,R,ugm-3,39.70597,R,ugm-3
05-01-2019,01:00,3.38318,R,ugm-3,11.83690,R,ugm-3,17.02438,R,ugm-3
05-01-2019,02:00,2.46050,R,ugm-3,9.90898,R,ugm-3,13.68169,R,ugm-3
05-01-2019,03:00,2.34516,R,ugm-3,9.98866,R,ugm-3,13.58452,R,ugm-3
05-01-2019,04:00,2.80650,R,ugm-3,11.26357,R,ugm-3,15.56681,R,ugm-3
05-01-2019,05:00,1.61470,R,ugm-3,7.72713,R,ugm-3,10.20297,R,ugm-3
05-01-2019,06:00,6.99703,R,ugm-3,13.40866,R,ugm-3,24.13730,R,ugm-3
05-01-2019,07:00,31.44821,R,ugm-3,38.35953,R,ugm-3,86.57944,R,ugm-3
05-01-2019,08:00,38.63747,R,ugm-3,44.82695,R,ugm-3,104.07024,R,ugm-3
05-01-2019,09:00,50.93995,R,ugm-3,47.82691,R,ugm-3,125.93374,R,ugm-3
05-01-2019,10:00,48.74857,R,ugm-3,38.94342,R,ugm-3,113.69018,R,ugm-3
05-01-2019,11:00,71.12370,R,ugm-3,45.50552,R,ugm-3,154.56034,R,ugm-3
05-01-2019,12:00,126.10039,R,ugm-3,65.74576,R,ugm-3,259.09700,R,ugm-3
05-01-2019,13:00,206.48940,R,ugm-3,91.85575,R,ugm-3,408.46841,R,ugm-3
05-01-2019,14:00,121.83297,R,ugm-3,62.55251,R,ugm-3,249.36046,R,ugm-3
05-01-2019,15:00,128.83001,R,ugm-3,71.99659,R,ugm-3,269.53318,R,ugm-3
05-01-2019,16:00,104.87862,R,ugm-3,69.65876,R,ugm-3,230.47040,R,ugm-3
05-01-2019,17:00,119.21870,R,ugm-3,74.19866,R,ugm-3,256.99811,R,ugm-3
05-01-2019,18:00,142.90097,R,ugm-3,75.20005,R,ugm-3,294.31181,R,ugm-3
05-01-2019,19:00,85.88667,R,ugm-3,83.15423,R,ugm-3,214.84529,R,ugm-3
05-01-2019,20:00,60.55126,R,ugm-3,59.26766,R,ugm-3,152.11163,R,ugm-3
05-01-2019,21:00,64.28045,R,ugm-3,57.51424,R,ugm-3,156.07621,R,ugm-3
05-01-2019,22:00,53.24666,R,ugm-3,42.42431,R,ugm-3,124.06805,R,ugm-3
05-01-2019,23:00,39.48326,R,ugm-3,34.37656,R,ugm-3,94.91672,R,ugm-3
05-01-2019,24:00,25.83520,R,ugm-3,27.49293,R,ugm-3,67.10636,R,ugm-3
06-01-2019,01:00,24.37845,R,ugm-3,21.39489,R,ugm-3,58.77465,R,ugm-3
06-01-2019,02:00,31.80465,R,ugm-3,28.53584,R,ugm-3,77.30229,R,ugm-3
06-01-2019,03:00,26.69593,R,ugm-3,29.18769,R,ugm-3,70.12089,R,ugm-3
06-01-2019,04:00,18.59113,R,ugm-3,24.68312,R,ugm-3,53.18912,R,ugm-3
06-01-2019,05:00,10.25585,R,ugm-3,18.25490,R,ugm-3,33.98031,R,ugm-3
06-01-2019,06:00,1.95898,R,ugm-3,12.11809,R,ugm-3,15.12182,R,ugm-3
06-01-2019,07:00,6.60676,R,ugm-3,18.30347,R,ugm-3,28.43370,R,ugm-3
06-01-2019,08:00,19.39777,R,ugm-3,23.21275,R,ugm-3,52.95557,R,ugm-3
06-01-2019,09:00,18.93683,R,ugm-3,25.55430,R,ugm-3,54.59037,R,ugm-3
06-01-2019,10:00,29.19268,R,ugm-3,23.43269,R,ugm-3,68.19417,R,ugm-3
06-01-2019,11:00,35.18486,R,ugm-3,26.09705,R,ugm-3,80.04641,R,ugm-3
06-01-2019,12:00,67.56568,R,ugm-3,30.57043,R,ugm-3,134.16969,R,ugm-3
06-01-2019,13:00,73.74992,R,ugm-3,33.52415,R,ugm-3,146.60578,R,ugm-3
06-01-2019,14:00,73.40421,R,ugm-3,46.37355,R,ugm-3,158.92511,R,ugm-3
06-01-2019,15:00,79.58845,R,ugm-3,42.84649,R,ugm-3,164.88042,R,ugm-3
06-01-2019,16:00,97.14247,R,ugm-3,45.64889,R,ugm-3,194.59859,R,ugm-3
06-01-2019,17:00,73.98039,R,ugm-3,35.79812,R,ugm-3,149.23313,R,ugm-3
06-01-2019,18:00,97.29611,R,ugm-3,43.07788,R,ugm-3,192.26318,R,ugm-3
06-01-2019,19:00,64.87688,R,ugm-3,43.91809,R,ugm-3,143.39458,R,ugm-3
06-01-2019,20:00,8.41210,R,ugm-3,20.79001,R,ugm-3,33.68839,R,ugm-3
06-01-2019,21:00,1.65169,R,ugm-3,12.18057,R,ugm-3,14.71313,R,ugm-3
06-01-2019,22:00,5.80012,R,ugm-3,12.47566,R,ugm-3,21.36906,R,ugm-3
06-01-2019,23:00,2.38151,R,ugm-3,12.17085,R,ugm-3,15.82245,R,ugm-3
06-01-2019,24:00,0.80664,R,ugm-3,7.69614,R,ugm-3,8.93297,R,ugm-3
07-01-2019,01:00,0.40936,R,ugm-3,7.16808,R,ugm-3,7.79576,R,ugm-3
07-01-2019,02:00,0.76755,R,ugm-3,8.25597,R,ugm-3,9.43287,R,ugm-3
07-01-2019,03:00,0.11513,R,ugm-3,6.78118,R,ugm-3,6.95771,R,ugm-3
07-01-2019,04:00,0.19189,R,ugm-3,6.83889,R,ugm-3,7.13312,R,ugm-3
07-01-2019,05:00,0.30702,R,ugm-3,4.84985,R,ugm-3,5.32060,R,ugm-3
07-01-2019,06:00,0.99782,R,ugm-3,5.42775,R,ugm-3,6.95771,R,ugm-3
07-01-2019,07:00,7.33012,R,ugm-3,12.49872,R,ugm-3,23.73808,R,ugm-3
07-01-2019,08:00,17.30829,R,ugm-3,13.10241,R,ugm-3,39.64142,R,ugm-3
07-01-2019,09:00,43.75045,R,ugm-3,40.55683,R,ugm-3,107.63992,R,ugm-3
07-01-2019,10:00,47.08930,R,ugm-3,29.47357,R,ugm-3,101.67616,R,ugm-3
07-01-2019,11:00,45.05529,R,ugm-3,31.13064,R,ugm-3,100.21446,R,ugm-3
07-01-2019,12:00,47.43470,R,ugm-3,41.92391,R,ugm-3,114.65610,R,ugm-3
07-01-2019,13:00,40.83375,R,ugm-3,41.05320,R,ugm-3,103.66408,R,ugm-3
07-01-2019,14:00,57.98854,R,ugm-3,31.99768,R,ugm-3,120.91219,R,ugm-3
07-01-2019,15:00,20.45526,R,ugm-3,24.00508,R,ugm-3,55.36937,R,ugm-3
07-01-2019,16:00,46.59039,R,ugm-3,49.94233,R,ugm-3,121.37994,R,ugm-3
07-01-2019,17:00,31.54638,R,ugm-3,33.48501,R,ugm-3,81.85545,R,ugm-3
07-01-2019,18:00,48.70116,R,ugm-3,31.79648,R,ugm-3,106.47055,R,ugm-3
07-01-2019,19:00,8.86522,R,ugm-3,14.41311,R,ugm-3,28.00626,R,ugm-3
07-01-2019,20:00,8.98036,R,ugm-3,14.11963,R,ugm-3,27.88932,R,ugm-3
07-01-2019,21:00,13.96944,R,ugm-3,14.42148,R,ugm-3,35.84099,R,ugm-3
07-01-2019,22:00,4.68207,R,ugm-3,14.62956,R,ugm-3,21.80863,R,ugm-3
07-01-2019,23:00,9.59440,R,ugm-3,16.97855,R,ugm-3,31.68975,R,ugm-3
07-01-2019,24:00,1.53510,R,ugm-3,3.37609,R,ugm-3,5.72988,R,ugm-3
08-01-2019,01:00,1.02250,R,ugm-3,2.96013,R,ugm-3,4.52794,R,ugm-3
08-01-2019,02:00,0.56238,R,ugm-3,1.87008,R,ugm-3,2.73238,R,ugm-3
08-01-2019,03:00,-0.03834,R,ugm-3,1.63967,R,ugm-3,1.58088,R,ugm-3
08-01-2019,04:00,0.19172,R,ugm-3,1.81387,R,ugm-3,2.10783,R,ugm-3
08-01-2019,05:00,0.57516,R,ugm-3,3.33377,R,ugm-3,4.21567,R,ugm-3
08-01-2019,06:00,0.99694,R,ugm-3,5.38039,R,ugm-3,6.90901,R,ugm-3
08-01-2019,07:00,11.11969,R,ugm-3,16.61684,R,ugm-3,33.66679,R,ugm-3
08-01-2019,08:00,42.06311,R,ugm-3,41.42279,R,ugm-3,105.91865,R,ugm-3
08-01-2019,09:00,114.18772,R,ugm-3,78.67437,R,ugm-3,253.75977,R,ugm-3
08-01-2019,10:00,107.97603,R,ugm-3,94.28813,R,ugm-3,259.84907,R,ugm-3
08-01-2019,11:00,,,,,,,,,
08-01-2019,12:00,,,,,,,,,
08-01-2019,13:00,,,,,,,,,
08-01-2019,14:00,156.32752,R,ugm-3,102.70705,R,ugm-3,342.40589,R,ugm-3
08-01-2019,15:00,117.71535,R,ugm-3,75.78311,R,ugm-3,256.27746,R,ugm-3
08-01-2019,16:00,75.92065,R,ugm-3,62.58018,R,ugm-3,178.99022,R,ugm-3
08-01-2019,17:00,113.42085,R,ugm-3,107.01787,R,ugm-3,280.92741,R,ugm-3
08-01-2019,18:00,116.02822,R,ugm-3,72.63201,R,ugm-3,250.53947,R,ugm-3
08-01-2019,19:00,37.19345,R,ugm-3,46.02049,R,ugm-3,103.04965,R,ugm-3
08-01-2019,20:00,15.56757,R,ugm-3,29.70417,R,ugm-3,53.57411,R,ugm-3
08-01-2019,21:00,22.23938,R,ugm-3,31.00873,R,ugm-3,65.10865,R,ugm-3
08-01-2019,22:00,65.75955,R,ugm-3,39.75090,R,ugm-3,140.58080,R,ugm-3
08-01-2019,23:00,7.40035,R,ugm-3,17.28437,R,ugm-3,28.63141,R,ugm-3
08-01-2019,24:00,53.91133,R,ugm-3,23.19721,R,ugm-3,105.86010,R,ugm-3
09-01-2019,01:00,3.58163,R,ugm-3,10.59500,R,ugm-3,16.08676,R,ugm-3
09-01-2019,02:00,3.01880,R,ugm-3,10.13045,R,ugm-3,14.75921,R,ugm-3
09-01-2019,03:00,0.61399,R,ugm-3,7.78523,R,ugm-3,8.72668,R,ugm-3
09-01-2019,04:00,2.68622,R,ugm-3,14.74018,R,ugm-3,18.85899,R,ugm-3
09-01-2019,05:00,0.88262,R,ugm-3,13.40589,R,ugm-3,14.75921,R,ugm-3
09-01-2019,06:00,14.58235,R,ugm-3,28.12658,R,ugm-3,50.48588,R,ugm-3
09-01-2019,07:00,47.77639,R,ugm-3,51.96292,R,ugm-3,125.21903,R,ugm-3
09-01-2019,08:00,118.92292,R,ugm-3,90.23094,R,ugm-3,272.57688,R,ugm-3
09-01-2019,09:00,232.16640,R,ugm-3,89.01845,R,ugm-3,445.00197,R,ugm-3
09-01-2019,10:00,236.04224,R,ugm-3,97.19054,R,ugm-3,459.11693,R,ugm-3
09-01-2019,11:00,241.03094,R,ugm-3,93.64109,R,ugm-3,463.21671,R,ugm-3
09-01-2019,12:00,227.59983,R,ugm-3,95.14191,R,ugm-3,444.12344,R,ugm-3
09-01-2019,13:00,362.87033,R,ugm-3,110.81669,R,ugm-3,667.21011,R,ugm-3
09-01-2019,14:00,185.54125,R,ugm-3,85.89333,R,ugm-3,370.38595,R,ugm-3
09-01-2019,15:00,167.23656,R,ugm-3,95.74539,R,ugm-3,352.17121,R,ugm-3
09-01-2019,16:00,139.49172,R,ugm-3,74.97456,R,ugm-3,288.85887,R,ugm-3
09-01-2019,17:00,224.87523,R,ugm-3,108.10481,R,ugm-3,452.90869,R,ugm-3
09-01-2019,18:00,209.44863,R,ugm-3,78.87142,R,ugm-3,400.02151,R,ugm-3
09-01-2019,19:00,101.07873,R,ugm-3,71.73268,R,ugm-3,226.71790,R,ugm-3
09-01-2019,20:00,89.18260,R,ugm-3,58.93196,R,ugm-3,195.67670,R,ugm-3
09-01-2019,21:00,74.25488,R,ugm-3,52.00955,R,ugm-3,165.86543,R,ugm-3
09-01-2019,22:00,49.58000,R,ugm-3,44.27769,R,ugm-3,120.29930,R,ugm-3
09-01-2019,23:00,66.84858,R,ugm-3,40.52408,R,ugm-3,143.02380,R,ugm-3
09-01-2019,24:00,52.49647,R,ugm-3,33.07048,R,ugm-3,113.56394,R,ugm-3
10-01-2019,01:00,7.11781,R,ugm-3,26.34666,R,ugm-3,37.26048,R,ugm-3
10-01-2019,02:00,5.73522,R,ugm-3,23.62353,R,ugm-3,32.41740,R,ugm-3
10-01-2019,03:00,3.61011,R,ugm-3,17.89884,R,ugm-3,23.43427,R,ugm-3
10-01-2019,04:00,1.22898,R,ugm-3,19.79229,R,ugm-3,21.67670,R,ugm-3
10-01-2019,05:00,8.10355,R,ugm-3,23.78067,R,ugm-3,36.20594,R,ugm-3
10-01-2019,06:00,12.02091,R,ugm-3,22.69533,R,ugm-3,41.12714,R,ugm-3
10-01-2019,07:00,30.57075,R,ugm-3,33.68080,R,ugm-3,80.55529,R,ugm-3
10-01-2019,08:00,148.89798,R,ugm-3,53.95869,R,ugm-3,282.26574,R,ugm-3
10-01-2019,09:00,225.20964,R,ugm-3,77.73047,R,ugm-3,423.04710,R,ugm-3
10-01-2019,10:00,260.54266,R,ugm-3,83.83857,R,ugm-3,483.33175,R,ugm-3
10-01-2019,11:00,259.77455,R,ugm-3,85.42643,R,ugm-3,483.74185,R,ugm-3
10-01-2019,12:00,257.00936,R,ugm-3,86.73705,R,ugm-3,480.81257,R,ugm-3
10-01-2019,13:00,207.88877,R,ugm-3,68.49292,R,ugm-3,387.25126,R,ugm-3
10-01-2019,14:00,294.03223,R,ugm-3,80.00160,R,ugm-3,530.84473,R,ugm-3
10-01-2019,15:00,307.16690,R,ugm-3,90.15085,R,ugm-3,561.13352,R,ugm-3
10-01-2019,16:00,320.99286,R,ugm-3,107.32494,R,ugm-3,599.50713,R,ugm-3
10-01-2019,17:00,161.57178,R,ugm-3,101.72356,R,ugm-3,349.46350,R,ugm-3
10-01-2019,18:00,102.19694,R,ugm-3,73.01461,R,ugm-3,229.71440,R,ugm-3
10-01-2019,19:00,95.82163,R,ugm-3,65.27284,R,ugm-3,212.19729,R,ugm-3
10-01-2019,20:00,22.77444,R,ugm-3,42.35417,R,ugm-3,77.27450,R,ugm-3
10-01-2019,21:00,38.32865,R,ugm-3,38.13091,R,ugm-3,96.90069,R,ugm-3
10-01-2019,22:00,15.93827,R,ugm-3,23.71908,R,ugm-3,48.15742,R,ugm-3
10-01-2019,23:00,35.33303,R,ugm-3,24.62117,R,ugm-3,78.79772,R,ugm-3
10-01-2019,24:00,24.19544,R,ugm-3,25.70468,R,ugm-3,62.80384,R,ugm-3
11-01-2019,01:00,7.99475,R,ugm-3,22.12200,R,ugm-3,34.38044,R,ugm-3
11-01-2019,02:00,2.71617,R,ugm-3,9.90000,R,ugm-3,14.06473,R,ugm-3
11-01-2019,03:00,1.38371,R,ugm-3,12.70491,R,ugm-3,14.82657,R,ugm-3
11-01-2019,04:00,4.68923,R,ugm-3,19.41572,R,ugm-3,26.60578,R,ugm-3
11-01-2019,05:00,2.57523,R,ugm-3,19.78559,R,ugm-3,23.73423,R,ugm-3
11-01-2019,06:00,11.79995,R,ugm-3,26.91413,R,ugm-3,45.00713,R,ugm-3
11-01-2019,07:00,26.02139,R,ugm-3,36.51945,R,ugm-3,76.41835,R,ugm-3
11-01-2019,08:00,121.95843,R,ugm-3,99.80292,R,ugm-3,286.80323,R,ugm-3
11-01-2019,09:00,326.67023,R,ugm-3,120.07034,R,ugm-3,620.95772,R,ugm-3
11-01-2019,10:00,280.85415,R,ugm-3,121.93096,R,ugm-3,552.56798,R,ugm-3
11-01-2019,11:00,115.46269,R,ugm-3,85.32545,R,ugm-3,262.36577,R,ugm-3
11-01-2019,12:00,196.37113,R,ugm-3,94.58947,R,ugm-3,395.68767,R,ugm-3
11-01-2019,13:00,141.48407,R,ugm-3,85.86264,R,ugm-3,302.80186,R,ugm-3
11-01-2019,14:00,94.93770,R,ugm-3,80.93161,R,ugm-3,226.50071,R,ugm-3
11-01-2019,15:00,79.06350,R,ugm-3,62.49150,R,ugm-3,183.72050,R,ugm-3
11-01-2019,16:00,97.32075,R,ugm-3,80.67663,R,ugm-3,229.89969,R,ugm-3
11-01-2019,17:00,93.40024,R,ugm-3,68.63825,R,ugm-3,211.84996,R,ugm-3
11-01-2019,18:00,72.22183,R,ugm-3,77.96316,R,ugm-3,188.70176,R,ugm-3
11-01-2019,19:00,30.94123,R,ugm-3,42.74750,R,ugm-3,90.19007,R,ugm-3
11-01-2019,20:00,9.80126,R,ugm-3,26.05234,R,ugm-3,41.08073,R,ugm-3
11-01-2019,21:00,14.02926,R,ugm-3,34.22026,R,ugm-3,55.73148,R,ugm-3
11-01-2019,22:00,7.76414,R,ugm-3,21.20587,R,ugm-3,33.11071,R,ugm-3
11-01-2019,23:00,8.53286,R,ugm-3,17.68305,R,ugm-3,30.76659,R,ugm-3
11-01-2019,24:00,20.87092,R,ugm-3,16.22867,R,ugm-3,48.23030,R,ugm-3
12-01-2019,01:00,1.69256,R,ugm-3,8.89438,R,ugm-3,11.48960,R,ugm-3
12-01-2019,02:00,1.07708,R,ugm-3,5.53927,R,ugm-3,7.19077,R,ugm-3
12-01-2019,03:00,1.15401,R,ugm-3,4.15120,R,ugm-3,5.92066,R,ugm-3
12-01-2019,04:00,1.53869,R,ugm-3,6.19929,R,ugm-3,8.55858,R,ugm-3
12-01-2019,05:00,0.11540,R,ugm-3,2.81270,R,ugm-3,2.98964,R,ugm-3
12-01-2019,06:00,1.53869,R,ugm-3,3.67861,R,ugm-3,6.03790,R,ugm-3
12-01-2019,07:00,4.61606,R,ugm-3,6.81518,R,ugm-3,13.89303,R,ugm-3
12-01-2019,08:00,9.92453,R,ugm-3,12.92039,R,ugm-3,28.13779,R,ugm-3
12-01-2019,09:00,21.96475,R,ugm-3,23.30021,R,ugm-3,56.97903,R,ugm-3
12-01-2019,10:00,20.50300,R,ugm-3,41.83800,R,ugm-3,73.27549,R,ugm-3
12-01-2019,11:00,42.39082,R,ugm-3,71.76304,R,ugm-3,136.76138,R,ugm-3
12-01-2019,12:00,23.84964,R,ugm-3,31.60658,R,ugm-3,68.17552,R,ugm-3
12-01-2019,13:00,41.42914,R,ugm-3,38.00673,R,ugm-3,101.53053,R,ugm-3
12-01-2019,14:00,52.27688,R,ugm-3,72.84247,R,ugm-3,152.99923,R,ugm-3
12-01-2019,15:00,26.88855,R,ugm-3,44.65035,R,ugm-3,85.87888,R,ugm-3
12-01-2019,16:00,39.15957,R,ugm-3,42.71771,R,ugm-3,102.76155,R,ugm-3
12-01-2019,17:00,32.12008,R,ugm-3,30.18053,R,ugm-3,79.43064,R,ugm-3
12-01-2019,18:00,39.42884,R,ugm-3,25.12906,R,ugm-3,85.58578,R,ugm-3
12-01-2019,19:00,20.96461,R,ugm-3,18.09240,R,ugm-3,50.23768,R,ugm-3
12-01-2019,20:00,15.15606,R,ugm-3,15.91945,R,ugm-3,39.15842,R,ugm-3
12-01-2019,21:00,5.07767,R,ugm-3,9.97633,R,ugm-3,17.76198,R,ugm-3
12-01-2019,22:00,9.11672,R,ugm-3,16.50383,R,ugm-3,30.48261,R,ugm-3
12-01-2019,23:00,13.88665,R,ugm-3,20.32792,R,ugm-3,41.62048,R,ugm-3
12-01-2019,24:00,8.27044,R,ugm-3,14.92904,R,ugm-3,27.61021,R,ugm-3
13-01-2019,01:00,3.02851,R,ugm-3,6.22388,R,ugm-3,10.86753,R,ugm-3
13-01-2019,02:00,2.66920,R,ugm-3,5.75843,R,ugm-3,9.85114,R,ugm-3
13-01-2019,03:00,5.54372,R,ugm-3,10.14656,R,ugm-3,18.64681,R,ugm-3
13-01-2019,04:00,3.38783,R,ugm-3,6.76751,R,ugm-3,11.96210,R,ugm-3
13-01-2019,05:00,0.84696,R,ugm-3,5.79652,R,ugm-3,7.09517,R,ugm-3
13-01-2019,06:00,0.73146,R,ugm-3,4.27311,R,ugm-3,5.39468,R,ugm-3
13-01-2019,07:00,0.96245,R,ugm-3,3.68439,R,ugm-3,5.16012,R,ugm-3
13-01-2019,08:00,1.61692,R,ugm-3,2.85680,R,ugm-3,5.33604,R,ugm-3
13-01-2019,09:00,1.69391,R,ugm-3,5.26016,R,ugm-3,7.85746,R,ugm-3
13-01-2019,10:00,1.84791,R,ugm-3,3.85129,R,ugm-3,6.68470,R,ugm-3
13-01-2019,11:00,5.81320,R,ugm-3,5.92190,R,ugm-3,14.83535,R,ugm-3
13-01-2019,12:00,14.43676,R,ugm-3,15.50939,R,ugm-3,37.64544,R,ugm-3
13-01-2019,13:00,24.56173,R,ugm-3,43.14203,R,ugm-3,80.80283,R,ugm-3
13-01-2019,14:00,6.39067,R,ugm-3,8.96519,R,ugm-3,18.76408,R,ugm-3
13-01-2019,15:00,4.73526,R,ugm-3,5.58104,R,ugm-3,12.84167,R,ugm-3
13-01-2019,16:00,11.58790,R,ugm-3,19.76030,R,ugm-3,37.52817,R,ugm-3
13-01-2019,17:00,5.81320,R,ugm-3,11.14066,R,ugm-3,20.05411,R,ugm-3
13-01-2019,18:00,14.09027,R,ugm-3,9.23868,R,ugm-3,30.84346,R,ugm-3
13-01-2019,19:00,5.92870,R,ugm-3,5.97937,R,ugm-3,15.06990,R,ugm-3
13-01-2019,20:00,9.47051,R,ugm-3,11.74847,R,ugm-3,26.26972,R,ugm-3
13-01-2019,21:00,3.31083,R,ugm-3,6.88557,R,ugm-3,11.96210,R,ugm-3
13-01-2019,22:00,2.00190,R,ugm-3,3.79109,R,ugm-3,6.86062,R,ugm-3
13-01-2019,23:00,6.15968,R,ugm-3,13.54129,R,ugm-3,22.98600,R,ugm-3
13-01-2019,24:00,2.00190,R,ugm-3,3.61517,R,ugm-3,6.68470,R,ugm-3
14-01-2019,01:00,1.28430,R,ugm-3,1.78470,R,ugm-3,3.75393,R,ugm-3
14-01-2019,02:00,1.64390,R,ugm-3,3.18849,R,ugm-3,5.70910,R,ugm-3
14-01-2019,03:00,0.50088,R,ugm-3,1.98879,R,ugm-3,2.75679,R,ugm-3
14-01-2019,04:00,1.23292,R,ugm-3,4.32699,R,ugm-3,6.21744,R,ugm-3
14-01-2019,05:00,1.30998,R,ugm-3,6.20311,R,ugm-3,8.21172,R,ugm-3
14-01-2019,06:00,4.31523,R,ugm-3,11.39053,R,ugm-3,18.00712,R,ugm-3
14-01-2019,07:00,33.63570,R,ugm-3,48.66758,R,ugm-3,100.24161,R,ugm-3
14-01-2019,08:00,78.75300,R,ugm-3,77.85332,R,ugm-3,198.60625,R,ugm-3
14-01-2019,09:00,134.46575,R,ugm-3,88.21213,R,ugm-3,294.39006,R,ugm-3
14-01-2019,10:00,171.91580,R,ugm-3,101.46893,R,ugm-3,365.06949,R,ugm-3
14-01-2019,11:00,147.71968,R,ugm-3,83.55064,R,ugm-3,310.05098,R,ugm-3
14-01-2019,12:00,102.79502,R,ugm-3,64.15819,R,ugm-3,221.77502,R,ugm-3
14-01-2019,13:00,46.96669,R,ugm-3,48.63900,R,ugm-3,120.65359,R,ugm-3
14-01-2019,14:00,90.61990,R,ugm-3,70.80215,R,ugm-3,209.75072,R,ugm-3
14-01-2019,15:00,42.18911,R,ugm-3,44.29215,R,ugm-3,108.98122,R,ugm-3
14-01-2019,16:00,86.07349,R,ugm-3,80.88193,R,ugm-3,212.85944,R,ugm-3
14-01-2019,17:00,111.07872,R,ugm-3,76.44377,R,ugm-3,246.76210,R,ugm-3
14-01-2019,18:00,50.62693,R,ugm-3,65.37431,R,ugm-3,143.00119,R,ugm-3
14-01-2019,19:00,95.97541,R,ugm-3,46.46032,R,ugm-3,193.62056,R,ugm-3
14-01-2019,20:00,31.97896,R,ugm-3,24.40249,R,ugm-3,73.43621,R,ugm-3
14-01-2019,21:00,8.24518,R,ugm-3,21.20158,R,ugm-3,33.84401,R,ugm-3
14-01-2019,22:00,12.59894,R,ugm-3,21.15393,R,ugm-3,40.47203,R,ugm-3
14-01-2019,23:00,4.81611,R,ugm-3,14.37645,R,ugm-3,21.76105,R,ugm-3
14-01-2019,24:00,8.32224,R,ugm-3,9.05912,R,ugm-3,21.81971,R,ugm-3
15-01-2019,01:00,1.13109,R,ugm-3,4.05471,R,ugm-3,5.78902,R,ugm-3
15-01-2019,02:00,0.51413,R,ugm-3,2.57557,R,ugm-3,3.36389,R,ugm-3
15-01-2019,03:00,0.65552,R,ugm-3,2.28055,R,ugm-3,3.28566,R,ugm-3
15-01-2019,04:00,0.84831,R,ugm-3,4.80121,R,ugm-3,6.10194,R,ugm-3
15-01-2019,05:00,0.65552,R,ugm-3,4.33409,R,ugm-3,5.33920,R,ugm-3
15-01-2019,06:00,2.04367,R,ugm-3,5.84332,R,ugm-3,8.97689,R,ugm-3
15-01-2019,07:00,7.44203,R,ugm-3,12.35141,R,ugm-3,23.76236,R,ugm-3
15-01-2019,08:00,21.13073,R,ugm-3,33.78257,R,ugm-3,66.18257,R,ugm-3
15-01-2019,09:00,23.79135,R,ugm-3,32.51929,R,ugm-3,68.99884,R,ugm-3
15-01-2019,10:00,35.32070,R,ugm-3,40.95045,R,ugm-3,95.10810,R,ugm-3
15-01-2019,11:00,40.02499,R,ugm-3,47.46667,R,ugm-3,108.83746,R,ugm-3
15-01-2019,12:00,27.80156,R,ugm-3,32.23763,R,ugm-3,74.86609,R,ugm-3
15-01-2019,13:00,34.78087,R,ugm-3,48.40818,R,ugm-3,101.73809,R,ugm-3
15-01-2019,14:00,33.50840,R,ugm-3,41.85176,R,ugm-3,93.23058,R,ugm-3
15-01-2019,15:00,28.03292,R,ugm-3,31.64820,R,ugm-3,74.63140,R,ugm-3